Content
SEND FEEDBACK

Daily
Averages
Monthly
Summary
China

URUMQI, CHINA


Home > Asia > China
Elevation: 3014 feet     Latitude: 43 47N     Longitude: 087 37E

WEATHER
 
SELECT A DAY
Number of Records: 203,185;   Date Range: 7/1/96 - 8/10/14
 
SHARE

PRINT THIS DATA

[ ← Previous Day ]
WEATHER ALMANAC - FEBRUARY 13, 2013
[ Next Day → ]
[ °C ]   °F
Weather ElementAverageHighLow
Temperature10.1 °F17.6 °F (5:30 pm)1.4 °F (10:30 pm)
Dewpoint5.1 °F10.4 °F (2:30 am)-2.2 °F (10:30 pm)
Humidity80.5 %86 % (2:30 am)67 % (2:00 pm)
Barometer30.48 in30.54 in (1:30 pm)30.42 in (12:30 am)
Wind Speed2.8 mph6.7 mph (4:30 pm)
Weather ElementAverage
Visibility0.8 mi
Wind DirectionE (93.6 °)

Weather ElementTotal
Precipitation---
Heating Degree Days55.5 (Base 65)
Averaged from 47 records on February 13, 2013
WEATHER CONDITIONS BREAKOUT
WIND DIRECTION BREAKOUT
WEATHER BY HOUR - FEBRUARY 13, 2013
[ °C ]   °F
Local TimeTemperatureDewpointHumidityBarometerVisibilityWind DirectionWind SpeedGust SpeedPrecipitationEventsConditions
12:30 AM14.0 °F8.6 °F79 %30.42 in0.4 miVariable2.2 mphSnowLight Snow
1:00 AM12.2 °F8.6 °F85 %30.42 in0.4 miVariable2.2 mphFog-SnowLight Snow
1:30 AM12.2 °F8.6 °F85 %30.42 in0.4 miWNW (300°)2.2 mphFog-SnowLight Snow
2:00 AM14.0 °F8.6 °F79 %30.42 in0.4 miSouth (190°)4.5 mphFog-SnowLight Snow
2:30 AM14.0 °F10.4 °F86 %30.42 in0.7 miWSW (240°)4.5 mphSnowLight Snow
3:00 AM14.0 °F10.4 °F86 %30.42 in0.7 miWSW (250°)2.2 mphSnowLight Snow
3:30 AM12.2 °F8.6 °F85 %30.42 in0.7 miNorth (350°)4.5 mphSnowLight Snow
4:00 AM10.4 °F6.8 °F85 %30.42 in0.4 miNNW (340°)4.5 mphFog-SnowLight Snow
4:30 AM8.6 °F5.0 °F85 %30.45 in0.3 miCalmFog-SnowLight Snow
5:00 AM8.6 °F5.0 °F85 %30.45 in0.3 miCalmFog-SnowLight Snow
5:30 AM8.6 °F5.0 °F85 %30.45 in0.3 miCalmFog-SnowLight Snow
6:00 AM8.6 °F5.0 °F85 %30.45 in0.3 miCalmFog-SnowLight Snow
6:30 AM8.6 °F5.0 °F85 %30.45 in0.5 miNE (40°)2.2 mphFog-SnowLight Snow
7:00 AM8.6 °F5.0 °F85 %30.45 in0.4 miNE (40°)2.2 mphFog-SnowLight Snow
7:30 AM8.6 °F5.0 °F85 %30.45 in0.4 miEast (80°)2.2 mphFog-SnowLight Snow
8:00 AM8.6 °F5.0 °F85 %30.45 in0.4 miNorth (10°)2.2 mphFog-SnowLight Snow
8:30 AM8.6 °F5.0 °F85 %30.48 in0.5 miENE (60°)2.2 mphFog-SnowLight Snow
9:00 AM6.8 °F3.2 °F85 %30.48 in0.5 miENE (60°)2.2 mphFog-SnowLight Snow
9:30 AM6.8 °F3.2 °F85 %30.48 in0.5 miNNE (30°)4.5 mphFog-SnowLight Snow
10:00 AM5.0 °F1.4 °F85 %30.51 in0.4 miNE (50°)2.2 mphFog-SnowLight Snow
10:30 AM6.8 °F3.2 °F85 %30.51 in0.4 miCalmFog-SnowLight Snow
11:00 AM8.6 °F5.0 °F85 %30.51 in0.4 miVariable2.2 mphFog-SnowLight Snow
11:30 AM8.6 °F5.0 °F85 %30.51 in0.5 miWNW (290°)2.2 mphFog-SnowLight Snow
12:00 PM12.2 °F6.8 °F79 %30.51 in0.5 miVariable2.2 mphFog-SnowLight Snow
12:30 PM12.2 °F6.8 °F79 %30.51 in0.6 miNNW (330°)4.5 mphSnowLight Snow
1:00 PM10.4 °F6.8 °F85 %30.51 in0.6 miNorth (10°)4.5 mphSnowLight Snow
1:30 PM15.8 °F10.4 °F79 %30.54 in0.6 miVariable2.2 mphSnowLight Snow
2:00 PM14.0 °F5.0 °F67 %30.54 in0.7 miNorth (10°)4.5 mphMist
2:30 PM14.0 °F6.8 °F73 %30.51 in0.9 miNNE (30°)4.5 mphMist
3:00 PM14.0 °F6.8 °F73 %30.51 in0.9 miNorth (10°)4.5 mphMist
3:30 PM14.0 °F6.8 °F73 %30.51 in1.0 miNNE (30°)4.5 mphMist
4:00 PM15.8 °F6.8 °F68 %30.51 in1.0 miNNE (20°)4.5 mphMist
4:30 PM14.0 °F6.8 °F73 %30.51 in1.0 miNNE (20°)6.7 mphMist
5:00 PM14.0 °F6.8 °F73 %30.51 in1.2 miNorth (360°)4.5 mphMist
5:30 PM17.6 °F8.6 °F68 %30.51 in1.6 miVariable2.2 mphMist
6:00 PM15.8 °F6.8 °F68 %30.51 in1.6 miVariable2.2 mphMist
6:30 PM12.2 °F5.0 °F73 %30.51 in1.9 miNNE (30°)4.5 mphMist
7:00 PM12.2 °F3.2 °F67 %30.51 in1.9 miNE (40°)2.2 mphMist
7:30 PM8.6 °F1.4 °F73 %30.48 in1.6 miNNE (30°)2.2 mphMist
8:00 PM6.8 °F1.4 °F79 %30.48 in1.6 miNNE (30°)4.5 mphMist
8:30 PM5.0 °F1.4 °F85 %30.51 in1.1 miNE (40°)4.5 mphMist
9:00 PM5.0 °F1.4 °F85 %30.51 in1.0 miCalmMist
9:30 PM5.0 °F1.4 °F85 %30.48 in1.0 miCalmMist
10:00 PM3.2 °F-0.4 °F85 %30.48 in1.0 miWNW (290°)2.2 mphMist
10:30 PM1.4 °F-2.2 °F85 %30.48 in1.0 miWest (260°)2.2 mphPartly Cloudy
11:00 PM3.2 °F-0.4 °F85 %30.48 in1.0 miWest (260°)4.5 mphScattered Clouds
11:30 PM3.2 °F-2.2 °F78 %30.48 in1.0 miWest (270°)4.5 mphScattered Clouds
Hourly data recorded from ZWWW, located miles away from Urumqi, China







STORIES FROM OUR PARTNERS